Location: Moscow
(55.7500°N, 37.5830°E)
Time: 21:14:45
(UTC+03:00)

Vanguard 2 - Pass Details

Date: 30 November 2021
Orbit: 553 x 2936 km, 32.9° (Epoch: 15 January)

Event Time Altitude Azimuth Distance (km) Brightness Sun altitude
Rises 18:04:37 0° 239° (WSW) 4,092 12.8 -15.9°
Reaches altitude 10° 18:08:28 10° 218° (SW) 3,530 11.7 -16.5°
Maximum altitude 18:13:39 16° 184° (S) 3,562 11.1 -17.2°
Drops below altitude 10° 18:20:12 10° 152° (SSE) 4,640 11.3 -18.1°
Sets 18:26:39 0° 135° (SE) 6,124 11.8 -19.0°
